User: anonymous   Login
Location: Acheville
(50.3840°N, 2.8827°E)
Time: 04:57:04
(UTC+00:00)
Language:

SL-16 R/B - Orbit

View from above orbital plane
View from above orbital plane
View from above satellite
View from above satellite

Ground track
Ground track

The orbit data is extracted from the following two-line orbital elements,

1 31793U 07029B   22021.65550624 -.00000230  00000-0 -95239-4 0  9990
2 31793  70.9756 101.2508 0002117 263.6545 205.2170 14.14456956752194
Epoch (UTC): 21 January 2022 15:43:55
Eccentricity: 0.0002117
inclination: 70.9756°
perigee height: 842 km
apogee height: 845 km
right ascension of ascending node: 101.2508°
argument of perigee: 263.6545°
revolutions per day: 14.14456956
mean anomaly at epoch: 205.2170°
orbit number at epoch: 75219

The dashed part of the orbit path shows where the satellite is in the earth's shadow,  

DLR